This demonstration page uses our WeatherBlox Daily Observations layout. Learn more.

Left ArrowRight Arrow

Hourly Observations for June 1, 2017

Temp ( °F °C ) Dew Point ( °F °C ) Humidity (%) Winds ( mph kmh ) Pressure ( in mb ) Visibility ( mi km ) Precip ( " mm )
12:15 am 00:15 Clear 62 16.5 49 9.2 62 62 ESE 8 13 29.97 1015 10 16.0934 0 0
12:35 am 00:35 Partly Cloudy 62 16.7 49 9.4 62 62 SE 8 13 29.97 1015 10 16.0934 0 0
12:55 am 00:55 Mostly Cloudy 64 17.5 50 10.1 62 62 ESE 9 15 29.97 1015 10 16.0934 0 0
1:15 am 01:15 Cloudy 64 17.7 50 10 61 61 SE 9 15 29.97 1015 10 16.0934 0 0
1:35 am 01:35 Cloudy 64 17.5 51 10.4 63 63 ESE 9 15 29.97 1015 10 16.0934 0 0
1:55 am 01:55 Cloudy 61 16 51 10.8 71 71 NE 16 26 30 1016 10 16.0934 0 0
2:15 am 02:15 Cloudy 61 16.2 50 10.1 67 67 ENE 16 26 30 1016 10 16.0934 0 0
2:35 am 02:35 Cloudy 63 17 52 10.9 68 68 E 16 26 29.97 1015 10 16.0934 0 0
2:55 am 02:55 Cloudy 63 17.2 53 11.8 71 71 ESE 10 17 29.97 1015 10 16.0934 0 0
3:15 am 03:15 Cloudy 64 17.5 54 12 70 70 ESE 13 20 29.97 1015 10 16.0934 0 0
3:35 am 03:35 Partly Cloudy 63 17 54 12 73 73 SE 13 20 29.97 1015 10 16.0934 0 0
3:55 am 03:55 Partly Cloudy 62 16.8 55 12.5 76 76 SSE 13 20 29.97 1015 10 16.0934 0 0
4:15 am 04:15 Cloudy 62 16.4 55 12.6 78 78 ESE 12 19 29.97 1015 10 16.0934 0 0
4:35 am 04:35 Cloudy 61 16.2 55 12.8 80 80 SSE 10 17 30 1016 10 16.0934 0 0
4:55 am 04:55 Partly Cloudy with Nearby Thunderstorms 61 16 55 13 83 83 SE 9 15 30 1016 10 16.0934 0 0
5:15 am 05:15 Clear 60 15.8 56 13.1 84 84 SE 10 17 29.97 1015 10 16.0934 0 0
5:35 am 05:35 Partly Cloudy 60 15.5 56 13.4 87 87 SE 8 13 29.97 1015 10 16.0934 0 0
5:55 am 05:55 Partly Cloudy 59 15 56 13.3 90 90 SE 7 11 29.97 1015 10 16.0934 0 0
6:15 am 06:15 Sunny 58 14.5 55 13 91 91 Calm 29.97 1015 10 16.0934 0 0
6:35 am 06:35 Sunny 58 14.3 55 12.9 91 91 Calm 30 1016 10 16.0934 0 0
6:55 am 06:55 Sunny 58 14.5 56 13.3 93 93 E 5 7 30 1016 10 16.0934 0 0
7:15 am 07:15 Partly Cloudy 60 15.4 57 14 91 91 ESE 3 6 30 1016 10 16.0934 0 0
7:35 am 07:35 Partly Cloudy 60 15.8 57 14.1 90 90 ESE 5 7 30 1016 10 16.0934 0 0
7:55 am 07:55 Sunny 62 16.5 58 14.2 86 86 SE 6 9 29.97 1015 10 16.0934 0 0
8:15 am 08:15 Sunny 63 17.2 57 14.1 82 82 SSE 8 13 30 1016 10 16.0934 0 0
8:35 am 08:35 Sunny 65 18.1 58 14.2 78 78 SSE 8 13 30 1016 10 16.0934 0 0
8:55 am 08:55 Sunny 67 19.2 57 14.1 72 72 SSE 10 17 30 1016 10 16.0934 0 0
9:15 am 09:15 Sunny 68 19.9 56 13.5 67 67 SSE 9 15 30 1016 10 16.0934 0 0
9:35 am 09:35 Sunny 69 20.6 57 13.8 65 65 SSE 9 15 29.97 1015 10 16.0934 0 0
9:55 am 09:55 Sunny 70 21.1 56 13.3 61 61 SE 9 15 29.97 1015 10 16.0934 0 0
10:15 am 10:15 Sunny 71 21.8 57 13.9 61 61 SE 12 19 29.97 1015 10 16.0934 0 0
10:35 am 10:35 Partly Cloudy 71 21.6 57 14 62 62 SSE 12 19 29.97 1015 10 16.0934 0 0
10:55 am 10:55 Mostly Cloudy 71 21.9 58 14.2 62 62 SSE 16 26 29.94 1014 10 16.0934 0 0
11:15 am 11:15 Mostly Cloudy 71 21.9 58 14.2 62 62 SSE 14 22 29.94 1014 10 16.0934 0 0
11:35 am 11:35 Mostly Cloudy 72 22.3 58 14.3 61 61 SSE 12 19 29.94 1014 10 16.0934 0 0
11:55 am 11:55 Mostly Cloudy 72 22.1 57 14.1 61 61 SSE 13 20 29.94 1014 10 16.0934 0 0
12:15 pm 12:15 Mostly Cloudy 73 22.7 58 14.6 60 60 S 13 20 29.94 1014 10 16.0934 0 0
12:35 pm 12:35 Mostly Cloudy 73 23 58 14.6 59 59 SSE 13 20 29.91 1013 10 16.0934 0 0
12:55 pm 12:55 Partly Cloudy 75 23.8 58 14.7 57 57 SSE 12 19 29.88 1012 10 16.0934 0 0
1:15 pm 13:15 Partly Cloudy 76 24.2 58 14.6 55 55 SE 14 22 29.88 1012 10 16.0934 0 0
1:35 pm 13:35 Sunny 76 24.6 58 14.4 53 53 SE 13 20 29.88 1012 10 16.0934 0 0
1:55 pm 13:55 Sunny 77 25 58 14.4 52 52 SE 16 26 29.88 1012 10 16.0934 0 0
2:15 pm 14:15 Sunny 78 25.5 58 14.4 50 50 SSE 12 19 29.88 1012 10 16.0934 0 0
2:35 pm 14:35 Sunny 78 25.4 58 14.2 50 50 SE 15 24 29.85 1011 10 16.0934 0 0
2:55 pm 14:55 Sunny 78 25.8 58 14.4 49 49 SSE 13 20 29.85 1011 10 16.0934 0 0
3:15 pm 15:15 Sunny 78 25.7 57 13.9 48 48 S 15 24 29.85 1011 10 16.0934 0 0
3:35 pm 15:35 Sunny 79 26.3 58 14.6 49 49 SSE 13 20 29.85 1011 10 16.0934 0 0
3:55 pm 15:55 Sunny 79 26.1 58 14.2 48 48 SSE 13 20 29.85 1011 10 16.0934 0 0
4:15 pm 16:15 Partly Cloudy 80 26.4 58 14.5 48 48 S 12 19 29.85 1011 10 16.0934 0 0
4:35 pm 16:35 Partly Cloudy 80 26.8 58 14.5 47 47 S 12 19 29.8 1009 10 16.0934 0 0
4:55 pm 16:55 Partly Cloudy 80 26.7 58 14.7 48 48 SSE 13 20 29.8 1009 10 16.0934 0 0
5:15 pm 17:15 Partly Cloudy 81 27 58 14.6 47 47 SSE 10 17 29.8 1009 10 16.0934 0 0
5:35 pm 17:35 Partly Cloudy 81 27.1 60 15.7 50 50 SSE 14 22 29.8 1009 10 16.0934 0 0
5:55 pm 17:55 Mostly Cloudy 80 26.9 60 15.5 50 50 S 13 20 29.8 1009 10 16.0934 0 0
6:35 pm 18:35 Mostly Cloudy 81 27.1 58 14.5 46 46 SSE 15 24 29.8 1009 10 16.0934 0 0
6:55 pm 18:55 Sunny 73 22.5 43 6.1 35 35 E 16 26 29.94 1014 10 16.0934 0 0
7:15 pm 19:15 Partly Cloudy 81 27.3 58 14.2 45 45 SSE 14 22 29.77 1008 10 16.0934 0 0
7:35 pm 19:35 Sunny 81 27 57 14 45 45 SSE 12 19 29.77 1008 10 16.0934 0 0
7:55 pm 19:55 Sunny 80 26.7 57 14.1 46 46 SSE 13 20 29.77 1008 10 16.0934 0 0
8:15 pm 20:15 Sunny 79 26.2 58 14.6 49 49 SSE 12 19 29.77 1008 10 16.0934 0 0
8:35 pm 20:35 Sunny 78 25.5 59 14.8 52 52 SE 10 17 29.8 1009 10 16.0934 0 0
8:55 pm 20:55 Sunny 76 24.7 59 15 55 55 SE 10 17 29.8 1009 10 16.0934 0 0
9:15 pm 21:15 Clear 75 23.8 59 15.1 58 58 SE 10 17 29.8 1009 10 16.0934 0 0
9:35 pm 21:35 Clear 73 23 60 15.4 62 62 SE 9 15 29.83 1010 10 16.0934 0 0
9:55 pm 21:55 Clear 72 22.2 60 15.5 66 66 SE 9 15 29.85 1011 10 16.0934 0 0
10:15 pm 22:15 Clear 71 21.7 60 15.6 68 68 SE 10 17 29.85 1011 10 16.0934 0 0
10:35 pm 22:35 Clear 71 21.5 60 15.7 70 70 SE 10 17 29.85 1011 10 16.0934 0 0
10:55 pm 22:55 Clear 71 21.5 60 15.6 69 69 SE 12 19 29.85 1011 10 16.0934 0 0
11:15 pm 23:15 Clear 70 21.2 60 15.6 71 71 SE 12 19 29.88 1012 10 16.0934 0 0
11:35 pm 23:35 Clear 70 20.9 60 15.5 71 71 SSE 12 19 29.85 1011 10 16.0934 0 0
11:55 pm 23:55 Clear 69 20.5 60 15.7 74 74 SSE 10 17 29.88 1012 10 16.0934 0 0

Powered by AerisWeather